Location: Mentone
(34.5413°N, 85.5351°W)
Time: 07:43:52
(UTC-05:00)

Centaur AC-72 - Visible Passes

Search period start: 26 September 2017 00:00
Search period end: 06 October 2017 00:00
Orbit: 1084 x 35272 km, 19.1° (Epoch: 25 September)

Date Brightness Start Highest point End Pass type
(mag) Time Alt. Az. Time Alt. Az. Time Alt. Az.
26 Sep 7.1 11:31:15 10° SSE 19:28:29 64° SE 20:53:52 34° ESE visible
28 Sep 7.5 17:09:06 10° SW 19:22:00 34° WSW 02:05:25 26° WSW visible
29 Sep 6.9 14:00:38 10° SSW 18:31:31 58° SSW 23:22:06 62° S visible
30 Sep 7.1 11:15:23 10° SSE 19:09:42 64° SE 20:38:49 32° ESE visible
02 Oct 7.4 16:51:41 10° SW 19:06:09 35° WSW 01:50:27 27° WSW visible
03 Oct 6.9 13:44:18 10° SSW 18:19:02 59° SSW 23:07:12 61° S visible
04 Oct 7.1 10:59:29 10° SSE 18:51:07 63° SE 20:23:57 29° ESE visible
